Regional Weather Roundup
Issued by NWS State College, PA

Home | Current Version | Previous Version | Text Only | Print | Product List | Glossary On
Versions: 1 2 3 4 5 6 7 8 9 10 11 12 13 14 15 16 17 18 19 20 21 22 23 24 25 26 27 28 29 30 31 32 33 34 35 36 37 38 39 40 41 42 43 44 45 46 47 48 49 50
000
ASUS41 KCTP 200910
RWRCTP

REGIONAL WEATHER ROUNDUP
NATIONAL WEATHER SERVICE STATE COLLEGE PA
500 AM EDT WED AUG 20 2014

Note: "fair" indicates few or no clouds below 12,000 feet with no
significant weather and/or obstructions to visibility.

* = STATION THAT DOES NOT REPORT PRECIPITATION /E.G. RAIN...SNOW...ETC/
    THUNDER OR FOG.

PAZ002>004-007>009-013>016-020>023-029>032-201000-
WESTERN PENNSYLVANIA

CITY           SKY/WX    TMP DP  RH WIND       PRES   REMARKS
ERIE           RAIN      66  62  87 S10       29.86R FOG
MEADVILLE      RAIN      64  61  90 VRB6      29.87F FOG
FRANKLIN*      CLOUDY    63  59  88 S7        29.93R
NEW CASTLE     NOT AVBL
BEAVER COUNTY  NOT AVBL
BUTLER*        CLOUDY    64  61  88 CALM      29.95R
PITTSBURGH INT CLOUDY    66  65  96 N10       29.92R
PITTSBURGH     LGT RAIN  65  63  93 SE9       29.89F FOG
INDIANA*       CLOUDY    66  64  94 CALM      29.96F
LATROBE        PTCLDY    66  66 100 CALM      29.93F
WASHINGTON CO* CLOUDY    64  63  94 CALM      29.91R
$$

PAZ004>006-010>012-017>019-024>028-033>037-041-042-045-046-049>053-201000-
CENTRAL PENNSYLVANIA

CITY           SKY/WX    TMP DP  RH WIND       PRES   REMARKS
BRADFORD       MOCLDY    63  61  93 SE7       29.92F
DUBOIS         CLOUDY    64  62  93 E7        29.92F
CLEARFIELD     FOG       62  62 100 CALM      29.94S VSB 1/4
JOHNSTOWN      MOCLDY    65  62  90 N6        29.96F
ALTOONA        CLOUDY    68  67  96 CALM      29.94S FOG
STATE COLLEGE  CLOUDY    64  64  97 CALM      29.93S FOG
WILLIAMSPORT   CLOUDY    65  61  87 CALM      29.91S
SELINSGROVE    FOG       65  64  97 CALM      29.92S VSB 1/4
FT INDIANTOWN  MOCLDY    64  64 100 N1        29.94S FOG
CAPITAL CITY   MOCLDY    69  64  84 S3        29.93R
HARRISBURG     MOCLDY    70  64  81 SE5       29.92R
YORK           PTCLDY    63  61  93 CALM      29.93S
$$

PAZ038>040-043-044-047-048-054-055-060>062-067>071-201000-
EASTERN PENNSYLVANIA

CITY           SKY/WX    TMP DP  RH WIND       PRES   REMARKS
SCRANTON       PTCLDY    65  61  87 CALM      29.94S
MOUNT POCONO   CLEAR     59  57  93 W3        29.98F FOG
ALLENTOWN      PTCLDY    66  62  87 CALM      29.94F
QUAKERTOWN*    CLOUDY    68  64  88 CALM      29.96S
READING        PTCLDY    70  62  76 CALM      29.93S
LANCASTER      MOCLDY    64  61  90 CALM      29.94S
COATESVILLE    CLOUDY    66  66 100 CALM      29.96S
POTTSTOWN      CLOUDY    69  64  84 CALM      29.96S
BLUE BELL      PTCLDY    68  64  88 CALM      29.94S
DOYLESTOWN     MOCLDY    66  63  90 CALM      29.94S
WILLOW GROVE   NOT AVBL
NORTH PHILA    CLOUDY    71  63  75 SE6       29.95F
PHILADELPHIA   CLOUDY    72  65  78 SE3       29.95S
$$



USA.gov is the U.S. government's official web portal to all federal, state and local government web resources and services.